W5CGC Weather Reports


Display with metric or nautical units.
time (UTC)temp
F
wind
direction
speed
MPH
gust
MPH
rain 1hr
in
rain 24hr
in
rain mn
in
humidity
%
barometer
mb
20260902130043 78 0 0.0 0.0 0.00 0.00 0.00 61 1015.6
20260902124542 76 0 0.0 0.0 0.00 0.00 0.00 62 1015.5
20260902123040 76 0 0.0 0.0 0.00 0.00 0.00 62 1015.3
20260902121542 76 0 0.0 0.0 0.00 0.00 0.00 60 1015.1
20260902120045 77 0 0.0 0.0 0.00 0.00 0.00 60 1015.1
20260902114540 78 0 0.0 0.0 0.00 0.00 0.00 58 1015.1
20260902113048 77 0 0.0 0.0 0.00 0.00 0.00 59 1015.2
20260902111545 77 0 0.0 1.0 0.00 0.00 0.00 60 1015.2
20260902110040 77 0 0.0 0.0 0.00 0.00 0.00 59 1015.2
20260902104545 77 0 0.0 0.0 0.00 0.00 0.00 58 1015.1
20260902103042 77 0 0.0 0.0 0.00 0.00 0.00 59 1015.2
20260902101540 77 0 0.0 0.0 0.00 0.00 0.00 58 1015.2
20260902100042 78 0 0.0 0.0 0.00 0.00 0.00 58 1015.1
20260902094537 78 0 0.0 0.0 0.00 0.00 0.00 57 1015.0
20260902093043 79 0 0.0 0.0 0.00 0.00 0.00 55 1015.1
20260902091548 79 0 0.0 0.0 0.00 0.00 0.00 54 1015.1
20260902090037 80 0 0.0 0.0 0.00 0.00 0.00 53 1015.2
20260902084542 81 0 0.0 0.0 0.00 0.00 0.00 51 1015.1
20260902083042 82 0 0.0 0.0 0.00 0.00 0.00 49 1015.1
20260902081540 83 0 0.0 1.0 0.00 0.00 0.00 48 1015.2
20260902080035 84 111 1.0 4.0 0.00 0.00 0.00 47 1015.1
20260902074541 84 0 0.0 0.0 0.00 0.00 0.00 47 1015.1
20260902073040 84 0 0.0 7.0 0.00 0.00 0.00 46 1015.2
20260902071543 85 118 0.0 5.0 0.00 0.00 0.00 46 1015.3
20260902070042 85 112 0.0 4.0 0.00 0.00 0.00 46 1015.3
20260902064551 85 153 1.0 6.0 0.00 0.00 0.00 45 1015.3
20260902063046 86 118 1.0 5.0 0.00 0.00 0.00 45 1015.1
20260902061552 86 156 0.0 8.0 0.00 0.00 0.00 45 1015.0
20260902060038 86 129 0.0 6.0 0.00 0.00 0.00 45 1014.9
20260902054545 86 150 0.0 3.0 0.00 0.00 0.00 44 1014.6
20260902053039 87 118 1.0 5.0 0.00 0.00 0.00 43 1014.4
20260902051543 87 127 2.0 7.0 0.00 0.00 0.00 42 1014.4
20260902050046 86 32 1.0 6.0 0.00 0.00 0.00 43 1014.4
20260902044543 84 141 0.0 3.0 0.00 0.00 0.00 46 1014.3
20260902043038 84 0 0.0 0.0 0.00 0.00 0.00 46 1014.1
20260902041539 84 0 0.0 0.0 0.00 0.00 0.00 45 1014.0
20260902040041 84 0 0.0 0.0 0.00 0.00 0.00 45 1014.0
20260902034555 84 0 0.0 0.0 0.00 0.00 0.00 45 1014.1
20260902033054 84 0 0.0 0.0 0.00 0.00 0.00 44 1014.1
20260902031540 85 0 0.0 0.0 0.00 0.00 0.00 44 1014.0
20260902030044 85 0 0.0 0.0 0.00 0.00 0.00 43 1013.7
20260902024545 86 0 0.0 0.0 0.00 0.00 0.00 41 1013.5
20260902023038 87 0 0.0 0.0 0.00 0.00 0.00 40 1013.4
20260902021538 87 0 0.0 0.0 0.00 0.00 0.00 40 1013.1
20260902020042 88 0 0.0 0.0 0.00 0.00 0.00 40 1013.0
20260902014540 88 0 0.0 0.0 0.00 0.00 0.00 40 1012.9
20260902013040 89 0 0.0 0.0 0.00 0.00 0.00 37 1012.7
20260902011544 90 0 0.0 0.0 0.00 0.00 0.00 36 1012.5
20260902010041 91 0 0.0 0.0 0.00 0.00 0.00 35 1012.5
20260902004541 92 0 0.0 0.0 0.00 0.00 0.00 33 1012.5
20260902003046 94 0 0.0 1.0 0.00 0.00 0.00 31 1012.5
20260902001542 94 0 0.0 2.0 0.00 0.00 0.00 30 1012.7
20260902000040 95 151 0.0 2.0 0.00 0.00 0.00 29 1012.8
20260901234550 96 0 0.0 3.0 0.00 0.00 0.00 28 1012.8
20260901233044 96 171 1.0 3.0 0.00 0.00 0.00 28 1012.9
20260901231541 96 167 0.0 3.0 0.00 0.00 0.00 29 1013.0
20260901230041 96 180 2.0 4.0 0.00 0.00 0.00 29 1013.0
20260901224551 96 0 0.0 3.0 0.00 0.00 0.00 28 1013.0
20260901223040 97 168 0.0 3.0 0.00 0.00 0.00 27 1013.0
20260901221544 97 174 1.0 4.0 0.00 0.00 0.00 26 1013.1
20260901220042 98 166 2.0 5.0 0.00 0.00 0.00 25 1013.1
20260901214545 98 167 1.0 4.0 0.00 0.00 0.00 26 1013.2
20260901213044 98 169 0.0 4.0 0.00 0.00 0.00 26 1013.3
20260901211542 98 174 1.0 4.0 0.00 0.00 0.00 26 1013.4
20260901210041 97 0 0.0 4.0 0.00 0.00 0.00 27 1013.6
20260901204540 97 165 1.0 4.0 0.00 0.00 0.00 27 1013.7
20260901203048 97 171 0.0 5.0 0.00 0.00 0.00 29 1013.8
20260901201540 95 205 2.0 5.0 0.00 0.00 0.00 31 1014.1
20260901200059 96 162 1.0 4.0 0.00 0.00 0.00 30 1014.4
20260901194549 95 217 1.0 5.0 0.00 0.00 0.00 31 1014.4
20260901193044 95 171 2.0 5.0 0.00 0.00 0.00 30 1014.6
20260901191545 95 197 1.0 5.0 0.00 0.00 0.00 30 1014.8
20260901190051 95 181 1.0 6.0 0.00 0.00 0.00 32 1015.0
20260901184546 95 148 1.0 3.0 0.00 0.00 0.00 33 1015.3
20260901183041 94 162 0.0 3.0 0.00 0.00 0.00 34 1015.7
20260901181549 94 174 1.0 4.0 0.00 0.00 0.00 33 1015.8
20260901180043 94 180 2.0 5.0 0.00 0.00 0.00 34 1016.1
20260901174543 95 151 1.0 5.0 0.00 0.00 0.00 33 1016.2
20260901173047 96 167 0.0 3.0 0.00 0.00 0.00 32 1016.3
20260901171556 95 140 0.0 3.0 0.00 0.00 0.00 33 1016.5
20260901170039 93 158 1.0 6.0 0.00 0.00 0.00 35 1016.6
20260901164544 93 0 0.0 5.0 0.00 0.00 0.00 37 1016.9
20260901163040 91 0 0.0 3.0 0.00 0.00 0.00 39 1016.9
20260901161545 91 127 0.0 2.0 0.00 0.00 0.00 39 1017.0
20260901160041 90 84 0.0 2.0 0.00 0.00 0.00 41 1017.0
20260901154625 89 93 0.0 2.0 0.00 0.00 0.00 44 1017.0
20260901153041 88 0 0.0 1.0 0.00 0.00 0.00 46 1016.9
20260901151545 87 0 0.0 1.0 0.00 0.00 0.00 51 1016.8
20260901150043 86 0 0.0 3.0 0.00 0.00 0.00 62 1017.0
20260901144541 85 0 0.0 2.0 0.00 0.00 0.00 64 1017.1
20260901143045 84 0 0.0 2.0 0.00 0.00 0.00 66 1017.1
20260901141540 82 0 0.0 3.0 0.00 0.00 0.00 69 1017.1
20260901140044 81 0 0.0 4.0 0.00 0.00 0.00 75 1017.2
20260901134539 78 0 0.0 3.0 0.00 0.00 0.00 82 1017.2
20260901133044 76 0 0.0 2.0 0.00 0.00 0.00 87 1017.1
20260901131542 76 0 0.0 1.0 0.00 0.00 0.00 88 1016.9